This is the latest recevied weather packets stored in our database for station/object SP1BMW-13. If no packets are shown the sender has not sent any weather packets the latest 10 day(s).
| Time | Temp. | Humidity | Pressure | Rain* | Wind** | Luminosity | Snow |
|---|---|---|---|---|---|---|---|
| 1787903298 | 19.44° C | 59% | 1011.1 hPa | 0 mm | 0.89 m/s, 63° | 124 W/m² | - |
| 1787903238 | 19.44° C | 59% | 1011.2 hPa | 0 mm | 1.34 m/s, 69° | 129 W/m² | - |
| 1787903179 | 19.44° C | 59% | 1011.4 hPa | 0 mm | 0.89 m/s, 35° | 134 W/m² | - |
| 1787903118 | 19.44° C | 58% | 1011.4 hPa | 0 mm | 2.68 m/s, 113° | 135 W/m² | - |
| 1787903058 | 19.44° C | 59% | 1011.2 hPa | 0 mm | 1.34 m/s, 68° | 136 W/m² | - |
| 1787902998 | 19.44° C | 59% | 1011.4 hPa | 0 mm | 0.89 m/s, 51° | 135 W/m² | - |
| 1787902938 | 19.44° C | 59% | 1011.3 hPa | 0 mm | 0.45 m/s, 86° | 136 W/m² | - |
| 1787902878 | 19.44° C | 60% | 1011.4 hPa | 0 mm | 0.45 m/s, 102° | 135 W/m² | - |
| 1787902818 | 19.44° C | 59% | 1011.4 hPa | 0 mm | 0.89 m/s, 32° | 134 W/m² | - |
| 1787902758 | 19.44° C | 59% | 1011.3 hPa | 0 mm | 1.34 m/s, 76° | 131 W/m² | - |
| 1787902698 | 19.44° C | 59% | 1011.5 hPa | 0 mm | 1.79 m/s, 15° | 129 W/m² | - |
| 1787902639 | 19.44° C | 59% | 1011.5 hPa | 0 mm | 1.34 m/s, 62° | 128 W/m² | - |
| 1787902578 | 19.44° C | 60% | 1011.5 hPa | 0 mm | 1.34 m/s, 63° | 126 W/m² | - |
| 1787902518 | 19.44° C | 58% | 1011.6 hPa | 0 mm | 1.79 m/s, 74° | 125 W/m² | - |
| 1787902458 | 19.44° C | 58% | 1011.6 hPa | 0 mm | 1.79 m/s, 105° | 125 W/m² | - |
| 1787902398 | 19.44° C | 59% | 1011.8 hPa | 0 mm | 0.89 m/s, 36° | 125 W/m² | - |
| 1787902338 | 19.44° C | 59% | 1011.6 hPa | 0 mm | 0.89 m/s, 355° | 126 W/m² | - |
| 1787902278 | 19.44° C | 59% | 1011.7 hPa | 0 mm | 1.79 m/s, 143° | 129 W/m² | - |
| 1787902218 | 19.44° C | 58% | 1011.8 hPa | 0 mm | 1.79 m/s, 41° | 131 W/m² | - |
| 1787902158 | 19.44° C | 59% | 1011.7 hPa | 0 mm | 0.89 m/s, 67° | 135 W/m² | - |
| 1787902098 | 19.44° C | 59% | 1011.7 hPa | 0 mm | 0.45 m/s, 39° | 138 W/m² | - |
| 1787902039 | 19.44° C | 59% | 1011.9 hPa | 0 mm | 0.89 m/s, 50° | 142 W/m² | - |
| 1787901978 | 19.44° C | 58% | 1011.7 hPa | 0 mm | 1.34 m/s, 16° | 144 W/m² | - |
| 1787901918 | 19.44° C | 58% | 1011.9 hPa | 0 mm | 0.89 m/s, 72° | 145 W/m² | - |
| 1787901858 | 19.44° C | 58% | 1011.9 hPa | 0 mm | 1.34 m/s, 93° | 145 W/m² | - |
* Rain latest hour (hover to see other rain measurements)
** Current wind speed in m/s (hover to see current wind gust speed)